This is the latest recevied weather packets stored in our database for station/object OK1UOJ. If no packets are shown the sender has not sent any weather packets the latest 1 day(s).
| Time | Temp. | Humidity | Pressure | Rain* | Wind** | Luminosity | Snow |
|---|---|---|---|---|---|---|---|
| 1778021900 | 13.89° C | 10% | - | - | 0.89 m/s, 135° | - | - |
| 1778021628 | 13.89° C | 10% | - | - | 0.89 m/s, 132° | - | - |
| 1778021627 | 13.89° C | 10% | - | - | 0.89 m/s, 132° | - | - |
| 1778021624 | 13.89° C | 10% | - | - | 0.89 m/s, 132° | - | - |
| 1778021067 | 13.89° C | 10% | - | - | 0 m/s | - | - |
| 1778020795 | 13.89° C | 88% | - | - | 0.45 m/s, 233° | - | - |
| 1778020790 | 13.89° C | 10% | - | - | 0.45 m/s, 233° | - | - |
| 1778020512 | 13.89° C | 10% | - | - | 0.89 m/s, 170° | - | - |
| 1778020235 | 13.89° C | 10% | - | - | 1.79 m/s, 135° | - | - |
| 1778019402 | 13.89° C | 10% | - | - | 2.24 m/s, 135° | - | - |
| 1778019125 | 13.89° C | 10% | - | - | 2.24 m/s, 135° | - | - |
| 1778018847 | 13.89° C | 10% | - | - | 2.24 m/s, 132° | - | - |
| 1778018570 | 13.89° C | 10% | - | - | 2.24 m/s, 132° | - | - |
| 1778018292 | 13.89° C | 10% | - | - | 1.79 m/s, 125° | - | - |
| 1778018015 | 13.33° C | 10% | - | - | 1.34 m/s, 128° | - | - |
| 1778017737 | 13.33° C | 10% | - | - | 0.89 m/s, 129° | - | - |
| 1778016627 | 13.33° C | 10% | - | - | 1.34 m/s, 135° | - | - |
| 1778016350 | 13.89° C | 10% | - | - | 1.34 m/s, 135° | - | - |
| 1778015795 | 13.89° C | 10% | - | - | 1.79 m/s, 132° | - | - |
| 1778015517 | 13.89° C | 10% | - | - | 1.79 m/s, 132° | - | - |
| 1778015240 | 13.33° C | 10% | - | - | 1.79 m/s, 135° | - | - |
| 1778014963 | 13.33° C | 10% | - | - | 1.79 m/s, 135° | - | - |
| 1778014685 | 13.89° C | 10% | - | - | 1.79 m/s, 135° | - | - |
| 1778014408 | 13.89° C | 10% | - | - | 1.34 m/s, 135° | - | - |
| 1778014130 | 14.44° C | 10% | - | - | 1.79 m/s, 135° | - | - |
* Rain since midnight (hover to see other rain measurements)
** Current wind speed in m/s (hover to see current wind gust speed)